FW2638 Weather Reports


Display with metric or nautical units.
time (UTC)temp
F
wind
direction
speed
MPH
gust
MPH
rain 1hr
in
rain 24hr
in
rain mn
in
humidity
%
barometer
mb
20260507161803 56 144 3.0 7.0 0.00 0.00 0.00 60 990.5
20260507160903 57 143 2.0 7.0 0.00 0.00 0.00 61 990.6
20260507160014 57 143 2.0 7.0 0.00 0.00 0.00 60 990.7
20260507155403 56 143 2.0 5.0 0.00 0.00 0.00 61 990.7
20260507154503 56 143 3.0 7.0 0.00 0.00 0.00 61 990.7
20260507153603 57 143 3.0 8.0 0.00 0.00 0.00 59 990.8
20260507152703 57 146 4.0 10.0 0.00 0.00 0.00 58 991.0
20260507151803 57 148 4.0 10.0 0.00 0.00 0.00 58 990.8
20260507150903 57 140 4.0 10.0 0.00 0.00 0.00 58 990.9
20260507150003 57 160 3.0 12.0 0.00 0.00 0.00 58 990.9
20260507145403 56 169 3.0 7.0 0.00 0.00 0.00 60 991.0
20260507144503 56 171 4.0 8.0 0.00 0.00 0.00 62 991.0
20260507143603 56 171 4.0 8.0 0.00 0.00 0.00 61 991.1
20260507142918 57 162 4.0 8.0 0.00 0.00 0.00 62 991.3
20260507141803 57 186 4.0 10.0 0.00 0.00 0.00 63 991.4
20260507140903 57 201 4.0 10.0 0.00 0.00 0.00 63 991.4
20260507140003 57 167 4.0 11.0 0.00 0.00 0.00 63 991.6
20260507135403 57 152 4.0 11.0 0.00 0.00 0.00 62 991.7
20260507134503 57 139 4.0 10.0 0.00 0.00 0.00 62 991.5
20260507133603 57 147 6.0 10.0 0.00 0.00 0.00 63 991.7
20260507132703 57 181 6.0 13.0 0.00 0.00 0.00 63 991.8
20260507132017 57 170 5.0 13.0 0.00 0.00 0.00 63 991.7
20260507130903 56 150 5.0 13.0 0.00 0.00 0.00 65 991.5
20260507130003 56 150 5.0 11.0 0.00 0.00 0.00 63 991.7
20260507125617 56 144 5.0 10.0 0.00 0.00 0.00 65 991.8
20260507124503 56 140 4.0 11.0 0.00 0.00 0.00 68 991.8
20260507123603 56 147 4.0 14.0 0.00 0.00 0.00 69 991.9
20260507122917 55 136 4.0 11.0 0.00 0.00 0.00 68 991.8
20260507122018 55 129 4.0 11.0 0.00 0.00 0.00 70 991.8
20260507120903 54 145 4.0 10.0 0.00 0.00 0.00 71 991.9
20260507120003 53 144 4.0 10.0 0.00 0.00 0.00 73 991.9
20260507115616 53 143 4.0 10.0 0.00 0.00 0.00 72 992.1
20260507114503 52 156 4.0 11.0 0.00 0.00 0.00 73 991.9
20260507113603 52 148 4.0 11.0 0.00 0.00 0.00 74 992.0
20260507112703 52 147 4.0 11.0 0.00 0.00 0.00 77 992.1
20260507111803 51 148 4.0 9.0 0.00 0.00 0.00 79 992.2
20260507110903 51 153 4.0 9.0 0.00 0.00 0.00 79 992.1
20260507110003 50 152 4.0 11.0 0.00 0.00 0.00 79 992.1
20260507105403 50 146 5.0 12.0 0.00 0.00 0.00 81 992.3
20260507104503 49 146 4.0 12.0 0.00 0.00 0.00 83 992.3
20260507103603 49 136 4.0 11.0 0.00 0.00 0.00 84 992.4
20260507102703 48 136 5.0 11.0 0.00 0.00 0.00 85 992.4
20260507102017 48 134 4.0 11.0 0.00 0.00 0.00 85 992.4
20260507100903 48 133 4.0 9.0 0.00 0.00 0.00 87 992.4
20260507100218 47 132 4.0 10.0 0.00 0.00 0.00 86 992.3
20260507095618 47 131 4.0 10.0 0.00 0.00 0.00 87 992.3
20260507094503 47 128 4.0 10.0 0.00 0.00 0.00 87 992.2
20260507093603 46 127 4.0 8.0 0.00 0.00 0.00 88 992.2
20260507092703 46 126 3.0 8.0 0.00 0.00 0.00 88 992.1
20260507092017 46 126 4.0 9.0 0.00 0.00 0.00 89 992.0
20260507090903 45 128 5.0 12.0 0.00 0.00 0.00 89 992.2
20260507090004 45 131 4.0 9.0 0.00 0.00 0.00 89 992.2
20260507085403 45 131 5.0 10.0 0.00 0.00 0.00 90 992.1
20260507084503 45 132 4.0 9.0 0.00 0.00 0.00 90 992.1
20260507083603 44 133 4.0 9.0 0.00 0.00 0.00 90 992.2
20260507082703 44 133 4.0 11.0 0.00 0.00 0.00 91 992.2
20260507081803 44 135 4.0 10.0 0.00 0.00 0.00 91 992.2
20260507080903 43 135 5.0 10.0 0.00 0.00 0.00 91 992.2
20260507080017 43 132 5.0 10.0 0.00 0.00 0.00 91 992.1
20260507075403 43 127 4.0 11.0 0.00 0.00 0.00 91 992.2
20260507074503 43 125 4.0 9.0 0.00 0.00 0.00 91 992.0
20260507073603 43 128 4.0 11.0 0.00 0.00 0.00 92 992.1
20260507072703 42 126 4.0 10.0 0.00 0.00 0.00 92 992.0
20260507072016 42 127 4.0 8.0 0.00 0.00 0.00 92 992.1
20260507070903 42 119 5.0 12.0 0.00 0.00 0.00 92 991.8
20260507070005 42 116 5.0 12.0 0.00 0.00 0.00 92 991.9
20260507065403 42 117 4.0 12.0 0.00 0.00 0.00 92 991.9
20260507064718 42 117 4.0 9.0 0.00 0.00 0.00 92 991.8
20260507063817 41 117 5.0 10.0 0.00 0.00 0.00 92 991.8
20260507062703 41 121 5.0 11.0 0.00 0.00 0.00 92 991.8
20260507061803 41 124 5.0 11.0 0.00 0.00 0.00 92 991.9
20260507060903 41 124 5.0 11.0 0.00 0.00 0.00 92 991.9
20260507060003 41 119 5.0 11.0 0.00 0.00 0.00 92 991.8
20260507055403 41 118 5.0 12.0 0.00 0.00 0.00 92 991.8
20260507054503 41 118 5.0 10.0 0.00 0.00 0.00 92 991.8
20260507053817 40 119 4.0 10.0 0.00 0.00 0.00 92 991.7
20260507052703 40 119 4.0 10.0 0.00 0.00 0.00 92 991.7
20260507052017 40 120 4.0 10.0 0.00 0.00 0.00 91 991.7
20260507050903 40 118 5.0 11.0 0.00 0.00 0.00 92 991.8
20260507050003 40 119 4.0 10.0 0.00 0.00 0.00 92 991.7
20260507045403 40 119 4.0 9.0 0.00 0.00 0.00 92 991.9
20260507044503 40 121 5.0 10.0 0.00 0.00 0.00 91 991.7
20260507043603 40 122 4.0 12.0 0.00 0.00 0.00 92 991.8
20260507042703 40 118 4.0 13.0 0.00 0.00 0.00 92 991.7
20260507042017 40 117 4.0 8.0 0.00 0.00 0.00 91 991.7
20260507041116 40 115 5.0 11.0 0.00 0.00 0.00 91 991.6
20260507040003 40 117 5.0 10.0 0.00 0.00 0.00 92 991.6
20260507035403 40 121 5.0 11.0 0.00 0.00 0.00 92 991.7
20260507034503 40 119 4.0 12.0 0.00 0.00 0.00 92 991.7
20260507033603 40 118 4.0 9.0 0.00 0.00 0.00 92 991.7
20260507032917 40 117 4.0 10.0 0.00 0.00 0.00 92 991.7
20260507032017 40 117 4.0 10.0 0.00 0.00 0.00 92 991.7
20260507031118 40 117 4.0 9.0 0.00 0.00 0.00 91 991.8
20260507030003 40 117 4.0 10.0 0.00 0.00 0.00 91 991.7
20260507025403 40 117 5.0 11.0 0.00 0.00 0.00 91 991.8
20260507024503 40 117 4.0 10.0 0.00 0.00 0.00 91 991.7
20260507023818 40 115 4.0 10.0 0.00 0.00 0.00 91 991.7
20260507022703 40 113 4.0 10.0 0.00 0.00 0.00 91 991.7
20260507022016 41 110 4.0 11.0 0.00 0.00 0.00 91 991.7
20260507021118 41 109 4.0 11.0 0.00 0.00 0.00 91 991.8
20260507020003 41 109 4.0 9.0 0.00 0.00 0.00 91 991.6
20260507015403 41 111 4.0 9.0 0.00 0.00 0.00 91 991.9
20260507014503 41 110 4.0 12.0 0.00 0.00 0.00 90 991.8
20260507013817 41 107 4.0 9.0 0.00 0.00 0.00 90 992.0
20260507012703 41 109 5.0 10.0 0.00 0.00 0.00 90 991.8
20260507011803 41 113 5.0 13.0 0.00 0.00 0.00 90 992.0
20260507010903 41 106 5.0 13.0 0.00 0.00 0.00 90 992.0
20260507010003 41 94 5.0 13.0 0.00 0.00 0.00 90 992.1
20260507005403 41 101 5.0 13.0 0.00 0.00 0.00 90 992.1
20260507004718 41 106 5.0 12.0 0.00 0.00 0.00 90 992.1
20260507003603 41 100 4.0 11.0 0.00 0.00 0.00 90 992.2
20260507002916 41 100 5.0 10.0 0.00 0.00 0.00 90 992.1
20260507001803 41 103 5.0 11.0 0.00 0.00 0.00 90 992.2
20260507000903 41 109 6.0 12.0 0.00 0.00 0.00 89 992.1
20260507000003 41 110 5.0 12.0 0.00 0.00 0.00 89 992.2
20260506235618 41 110 5.0 12.0 0.00 0.00 0.00 89 992.2
20260506234717 42 107 6.0 12.0 0.00 0.00 0.00 89 992.1
20260506233817 42 110 5.0 12.0 0.00 0.00 0.00 89 992.2
20260506232703 42 111 5.0 11.0 0.00 0.00 0.00 89 992.2
20260506231803 42 123 5.0 11.0 0.00 0.00 0.00 89 992.1
20260506230903 42 118 4.0 15.0 0.00 0.00 0.00 89 992.2
20260506230003 42 107 4.0 10.0 0.00 0.00 0.00 89 992.1
20260506225403 42 105 5.0 12.0 0.00 0.00 0.00 89 992.2
20260506224503 42 104 4.0 11.0 0.00 0.00 0.00 89 992.2
20260506223603 43 104 5.0 11.0 0.00 0.00 0.00 88 992.0
20260506222703 43 101 4.0 10.0 0.00 0.00 0.00 88 992.0
20260506221803 43 101 4.0 13.0 0.00 0.00 0.00 88 992.1
20260506220903 43 100 4.0 10.0 0.00 0.00 0.00 88 992.0
20260506220003 43 97 4.0 8.0 0.00 0.00 0.00 88 992.0
20260506215403 43 97 4.0 9.0 0.00 0.00 0.00 88 992.0
20260506214503 43 98 4.0 8.0 0.00 0.00 0.00 87 992.0
20260506213603 44 98 3.0 8.0 0.00 0.00 0.00 87 991.9
20260506212703 44 98 3.0 7.0 0.00 0.00 0.00 87 991.8
20260506211803 44 98 3.0 8.0 0.00 0.00 0.00 86 991.5
20260506210903 44 96 3.0 8.0 0.00 0.00 0.00 86 991.5
20260506210003 44 96 3.0 8.0 0.00 0.00 0.00 85 991.5
20260506205403 44 95 3.0 8.0 0.00 0.00 0.00 85 991.6
20260506204718 44 95 3.0 8.0 0.00 0.00 0.00 84 991.5
20260506203603 45 95 3.0 7.0 0.00 0.00 0.00 84 991.7
20260506202703 45 95 3.0 9.0 0.00 0.00 0.00 83 991.3
20260506201803 45 94 3.0 9.0 0.00 0.00 0.00 83 991.4
20260506200903 46 94 3.0 8.0 0.00 0.00 0.00 82 991.2
20260506200217 46 94 4.0 7.0 0.00 0.00 0.00 81 991.2
20260506195403 46 94 4.0 7.0 0.00 0.00 0.00 81 991.1
20260506194718 46 95 4.0 10.0 0.00 0.00 0.00 80 991.0
20260506193603 47 97 5.0 10.0 0.00 0.00 0.00 80 990.9
20260506192703 47 98 4.0 9.0 0.00 0.00 0.00 79 990.9
20260506191803 48 98 5.0 9.0 0.00 0.00 0.00 78 990.8
20260506190903 48 98 5.0 10.0 0.00 0.00 0.00 77 990.8
20260506190003 49 99 4.0 11.0 0.00 0.00 0.00 77 990.6
20260506185403 49 101 4.0 11.0 0.00 0.00 0.00 77 990.7
20260506184503 49 89 4.0 11.0 0.00 0.00 0.00 76 990.5
20260506183603 50 89 5.0 12.0 0.00 0.00 0.00 75 990.6
20260506182703 50 93 5.0 11.0 0.00 0.00 0.00 73 990.7
20260506181803 50 82 4.0 10.0 0.00 0.00 0.00 73 990.6
20260506180903 51 66 5.0 11.0 0.00 0.00 0.00 72 990.7
20260506180004 51 74 5.0 12.0 0.00 0.00 0.00 69 990.7
20260506175618 52 76 5.0 12.0 0.00 0.00 0.00 67 990.5
20260506174503 52 73 5.0 10.0 0.00 0.00 0.00 63 990.5
20260506173603 52 89 5.0 10.0 0.00 0.00 0.00 62 990.7
20260506172703 53 102 4.0 11.0 0.00 0.00 0.00 62 990.5
20260506171803 53 69 4.0 11.0 0.00 0.00 0.00 62 990.4
20260506170903 52 62 4.0 9.0 0.00 0.00 0.00 62 990.5
20260506170003 52 65 3.0 9.0 0.00 0.00 0.00 62 990.3
20260506165403 52 61 3.0 9.0 0.00 0.00 0.00 62 990.4
20260506164503 52 60 2.0 6.0 0.00 0.00 0.00 62 990.4
20260506163603 52 59 4.0 6.0 0.00 0.00 0.00 63 990.4
20260506162703 52 58 5.0 10.0 0.00 0.00 0.00 63 990.5